User: anonymous   Login
Location: Hanover
(52.3667°N, 9.7167°E)
Time: 23:22:02
(UTC+02:00)
Language:

Hubble Space Telescope - Orbit

View from above orbital plane
View from above orbital plane
View from above satellite
View from above satellite

Ground track
Ground track

The orbit data is extracted from the following two-line orbital elements,

1 20580U 90037B   21262.46804931  .00000572  00000-0  23558-4 0  9993
2 20580  28.4693 162.9701 0002620 359.6120 163.2219 15.09739186525219
Epoch (UTC): 19 September 2021 11:13:59
Eccentricity: 0.0002620
inclination: 28.4693°
perigee height: 535 km
apogee height: 539 km
right ascension of ascending node: 162.9701°
argument of perigee: 359.6120°
revolutions per day: 15.09739186
mean anomaly at epoch: 163.2219°
orbit number at epoch: 52521

The dashed part of the orbit path shows where the satellite is in the earth's shadow,  

DLR